Location: ???????????
(54.5822°N, 39.1075°E)
Time: 01:57:38
(UTC+00:00)

COSMOS 2406 - Pass Details

Date: 19 May 2025
Orbit: 845 x 859 km, 71.0° (Epoch: 14 June)

Event Time Altitude Azimuth Distance (km) Brightness Sun altitude
Exits shadow 21:59:09 - 244° (WSW) 3,015 5.7 -15.0°
Reaches altitude 10° 22:00:41 10° 250° (WSW) 2,477 5.3 -14.9°
Maximum altitude 22:05:58 38° 318° (NW) 1,276 4.5 -14.8°
Drops below altitude 10° 22:11:18 10° 26° (NNE) 2,496 6.9 -14.6°
Sets 22:13:58 0° 35° (NE) 3,438 7.7 -14.6°
